Date String (YYYY-MM-DD hh:mm:ss) UTC,Instrument flags,Ambient pressure (hPa),Sample flow (lpm),Bypass flow (lpm),Sample temperature (°C),Ambient temperature (°C),ASC tube jacket temperature (°C),LED temperature (°C),Box temperature (°C),Sample RH (%),Span deviation,Mass concentration (μg/m³),Mass concentration (μg/m³),Mass concentration (μg/m³)
DateTimeUTC,F1_M11,P_M11,Q1_M11,Q2_M11,T1_M11,T2_M11,T3_M11,T4_M11,T5_M11,U1_M11,ZSPAN_M11,X2_M11,X0_M11,X1_M11
2023-02-04 13:00:00,,0823.8,4.99,0.00,21.9,20.0,00.0,30.9,23.5,05.8,0000.0,0001.01,0003.66,0000.40
2023-02-04 13:01:00,,0823.8,4.97,0.00,21.8,20.0,00.0,30.9,23.5,05.6,0000.0,0001.02,0003.44,0000.41
2023-02-04 13:02:00,,0824.1,4.99,0.00,21.8,20.0,00.0,30.9,23.5,05.9,0000.0,0001.03,0002.83,0000.41
2023-02-04 13:03:00,,0824.1,5.02,0.00,21.8,20.0,00.0,30.9,23.4,06.1,0000.0,0001.00,0002.34,0000.41
2023-02-04 13:04:00,,0824.0,5.03,0.00,21.8,20.1,00.0,30.8,23.4,06.0,0000.0,0001.02,0002.37,0000.40
2023-02-04 13:05:00,,0824.0,4.99,0.00,21.8,20.1,00.0,30.8,23.4,05.8,0000.0,0001.04,0002.37,0000.40
2023-02-04 13:06:00,,0824.0,4.98,0.00,21.7,20.1,00.0,30.8,23.4,05.6,0000.0,0001.05,0002.49,0000.40
2023-02-04 13:07:00,,0824.0,4.98,0.00,21.7,20.1,00.0,30.8,23.4,06.0,0000.0,0001.09,0002.72,0000.40
2023-02-04 13:08:00,,0824.0,5.01,0.00,21.8,20.7,00.0,30.7,23.6,06.0,0000.0,0001.08,0002.73,0000.39
2023-02-04 13:09:00,,0824.1,5.03,0.00,21.9,21.7,00.0,30.7,23.9,05.5,0000.0,0001.11,0002.90,0000.39
2023-02-04 13:10:00,,0824.1,4.95,0.00,22.0,22.2,00.0,30.7,24.0,05.5,0000.0,0001.14,0002.93,0000.40
2023-02-04 13:11:00,,0824.1,5.02,0.00,22.0,21.8,00.0,30.8,24.0,05.3,0000.0,0001.07,0002.73,0000.38
2023-02-04 13:12:00,,0824.2,5.00,0.00,22.0,21.4,00.0,30.8,23.9,05.8,0000.0,0001.05,0002.69,0000.38
2023-02-04 13:13:00,,0824.3,4.98,0.00,22.0,21.0,00.0,30.8,23.8,06.0,0000.0,0001.01,0002.56,0000.37
2023-02-04 13:14:00,,0824.2,4.97,0.00,21.9,20.8,00.0,30.8,23.7,05.8,0000.0,0001.09,0002.76,0000.38
2023-02-04 13:15:00,,0824.2,5.00,0.00,21.9,20.5,00.0,30.8,23.7,05.8,0000.0,0001.12,0002.92,0000.38
2023-02-04 13:16:00,,0824.3,5.04,0.00,21.9,20.3,00.0,30.8,23.6,05.5,0000.0,0001.10,0002.92,0000.38
2023-02-04 13:17:00,,0824.2,5.02,0.00,21.8,20.1,00.0,30.8,23.5,05.3,0000.0,0001.11,0002.79,0000.40
2023-02-04 13:18:00,,0824.3,5.00,0.00,21.8,20.0,00.0,30.8,23.5,05.3,0000.0,0001.09,0002.63,0000.40
2023-02-04 13:19:00,,0824.2,5.00,0.00,21.8,20.0,00.0,30.8,23.5,05.6,0000.0,0001.09,0002.80,0000.40
2023-02-04 13:20:00,,0824.4,4.98,0.00,21.7,19.9,00.0,30.8,23.4,06.1,0000.0,0001.07,0003.17,0000.40
2023-02-04 13:21:00,,0824.4,5.03,0.00,21.7,19.9,00.0,30.8,23.4,06.1,0000.0,0001.07,0003.40,0000.40
2023-02-04 13:22:00,,0824.4,5.01,0.00,21.7,19.8,00.0,30.7,23.3,06.4,0000.0,0001.08,0003.52,0000.39
2023-02-04 13:23:00,,0824.4,5.01,0.00,21.6,19.8,00.0,30.7,23.3,06.3,0000.0,0001.06,0003.71,0000.39
2023-02-04 13:24:00,,0824.4,4.97,0.00,21.6,19.8,00.0,30.7,23.3,06.5,0000.0,0001.12,0003.86,0000.39
2023-02-04 13:25:00,,0824.5,5.00,0.00,21.6,19.7,00.0,30.7,23.3,06.3,0000.0,0001.12,0003.79,0000.39
2023-02-04 13:26:00,,0824.4,5.02,0.00,21.6,19.8,00.0,30.7,23.2,06.0,0000.0,0001.12,0003.71,0000.39
2023-02-04 13:27:00,,0824.5,5.02,0.00,21.6,19.8,00.0,30.6,23.2,06.2,0000.0,0001.14,0003.70,0000.39
2023-02-04 13:28:00,,0824.5,5.01,0.00,21.5,19.8,00.0,30.6,23.2,06.3,0000.0,0001.14,0003.70,0000.38
2023-02-04 13:29:00,,0824.7,4.98,0.00,21.5,19.7,00.0,30.6,23.2,05.9,0000.0,0001.09,0003.69,0000.37
2023-02-04 13:30:00,,0824.6,4.98,0.00,21.5,19.8,00.0,30.6,23.2,05.7,0000.0,0001.08,0003.58,0000.36
2023-02-04 13:31:00,,0824.6,4.99,0.00,21.5,19.8,00.0,30.6,23.2,05.8,0000.0,0001.10,0003.15,0000.36
2023-02-04 13:32:00,,0824.7,5.00,0.00,21.5,19.9,00.0,30.5,23.2,06.1,0000.0,0001.08,0002.80,0000.37
2023-02-04 13:33:00,,0824.7,5.02,0.00,21.5,20.0,00.0,30.5,23.2,05.9,0000.0,0001.08,0002.66,0000.37
2023-02-04 13:34:00,,0824.7,5.01,0.00,21.5,20.0,00.0,30.5,23.3,05.9,0000.0,0001.10,0002.56,0000.38
2023-02-04 13:35:00,,0824.7,4.99,0.00,21.5,20.0,00.0,30.5,23.2,05.8,0000.0,0001.11,0002.96,0000.39
2023-02-04 13:36:00,,0824.7,4.98,0.00,21.5,19.9,00.0,30.5,23.2,05.5,0000.0,0001.00,0003.53,0000.39
2023-02-04 13:37:00,,0824.8,4.99,0.00,21.5,19.9,00.0,30.5,23.2,05.9,0000.0,0000.97,0003.49,0000.39
2023-02-04 13:38:00,,0824.7,4.99,0.00,21.5,20.0,00.0,30.5,23.2,05.6,0000.0,0000.97,0003.57,0000.39
2023-02-04 13:39:00,,0824.8,5.02,0.00,21.5,20.0,00.0,30.5,23.2,05.5,0000.0,0000.94,0003.60,0000.39
2023-02-04 13:40:00,,0824.8,5.01,0.00,21.5,20.0,00.0,30.5,23.2,05.7,0000.0,0000.97,0004.27,0000.39
2023-02-04 13:41:00,,0824.8,5.02,0.00,21.5,20.1,00.0,30.4,23.2,05.8,0000.0,0001.01,0005.66,0000.40
2023-02-04 13:42:00,,0824.8,5.01,0.00,21.5,20.1,00.0,30.4,23.3,05.8,0000.0,0001.06,0005.98,0000.40
2023-02-04 13:43:00,,0824.8,4.99,0.00,21.5,20.3,00.0,30.4,23.3,05.7,0000.0,0001.08,0006.16,0000.40
2023-02-04 13:44:00,,0824.8,4.97,0.00,21.6,21.3,00.0,30.4,23.6,05.6,0000.0,0001.15,0006.35,0000.39
2023-02-04 13:45:00,,0824.7,4.98,0.00,21.7,22.4,00.0,30.4,23.8,05.7,0000.0,0001.15,0006.27,0000.40
2023-02-04 13:46:00,,0824.7,5.01,0.00,21.9,22.5,00.0,30.5,23.9,06.0,0000.0,0001.12,0005.87,0000.40
2023-02-04 13:47:00,,0824.7,5.01,0.00,21.9,22.0,00.0,30.5,23.9,06.4,0000.0,0001.23,0006.81,0000.40
2023-02-04 13:48:00,,0824.7,5.01,0.00,21.9,21.7,00.0,30.6,23.9,06.5,0000.0,0001.28,0007.74,0000.40
2023-02-04 13:49:00,,0824.7,4.99,0.00,21.9,21.4,00.0,30.6,23.8,06.7,0000.0,0001.31,0007.80,0000.40
2023-02-04 13:50:00,,0824.7,4.97,0.00,22.0,21.2,00.0,30.7,23.8,05.6,0000.0,0001.30,0007.76,0000.40
2023-02-04 13:51:00,,0824.7,4.98,0.00,22.0,21.0,00.0,30.7,23.8,05.5,0000.0,0001.29,0007.41,0000.41
2023-02-04 13:52:00,,0824.6,5.01,0.00,21.9,20.8,00.0,30.7,23.7,05.7,0000.0,0001.26,0006.08,0000.41
2023-02-04 13:53:00,,0824.6,5.01,0.00,21.9,20.5,00.0,30.7,23.6,05.8,0000.0,0001.22,0005.94,0000.40
2023-02-04 13:54:00,,0824.4,5.02,0.00,21.9,20.4,00.0,30.7,23.6,05.6,0000.0,0001.23,0006.55,0000.41
2023-02-04 13:55:00,,0824.5,4.99,0.00,21.8,20.2,00.0,30.7,23.5,05.9,0000.0,0001.17,0006.88,0000.41
2023-02-04 13:56:00,,0824.6,4.98,0.00,21.8,20.1,00.0,30.7,23.5,06.3,0000.0,0001.11,0006.73,0000.41
2023-02-04 13:57:00,,0824.6,4.97,0.00,21.7,20.0,00.0,30.7,23.4,05.8,0000.0,0001.16,0006.80,0000.41
2023-02-04 13:58:00,,0824.8,4.99,0.00,21.7,19.8,00.0,30.7,23.3,06.0,0000.0,0001.10,0005.23,0000.41
2023-02-04 13:59:00,,0824.8,5.02,0.00,21.7,19.8,00.0,30.7,23.3,06.1,0000.0,0001.06,0003.88,0000.41
